Location: Bodest
(46.3000°N, 22.5667°E)
Time: 01:06:57
(UTC+00:00)

FENGYUN 1C DEB - Pass Details

Date: 06 April 2023
Orbit: 806 x 916 km, 98.8° (Epoch: 29 May)

Event Time Altitude Azimuth Distance (km) Brightness Sun altitude
Rises 19:26:28 0° 213° (SSW) 3,536 ? -23.0°
Reaches altitude 10° 19:29:55 10° 234° (SW) 2,590 ? -23.4°
Maximum altitude 19:33:23 16° 271° (W) 2,170 ? -23.9°
Drops below altitude 10° 19:36:50 10° 309° (NW) 2,570 ? -24.3°
Sets 19:40:15 0° 330° (NNW) 3,494 ? -24.8°
